Location: Niedergestelen
(46.3129°N, 7.7822°E)
Time: 08:43:36
(UTC+00:00)

IRIDIUM 33 DEB - Visible Passes

Search period start: 16 June 2021 00:00
Search period end: 26 June 2021 00:00
Orbit: 751 x 793 km, 86.4° (Epoch: 15 June)

Date Brightness Start Highest point End Pass type
(mag) Time Alt. Az. Time Alt. Az. Time Alt. Az.
16 Jun ? 20:48:59 10° NW 20:50:55 12° WNW 20:52:49 10° W visible
17 Jun ? 20:12:11 10° NNW 20:16:04 22° W 20:19:55 10° SW visible
20 Jun ? 20:07:28 10° NW 20:10:45 17° WNW 20:14:02 10° WSW visible
23 Jun ? 20:02:57 10° NW 20:05:25 14° WNW 20:07:53 10° WSW visible
